Weather History for New Bern, NC

Change the Weather History Date:

Wednesday, November 14, 2012

  Actual Average Record
Temperature  
Mean Temperature 49 °F 56 °F  
Max Temperature 52 °F 67 °F 81 °F (1985)
Min Temperature 45 °F 44 °F 25 °F (2013)
Degree Days  
Heating Degree Days 16 10  
Month to date heating degree days 192 116  
Since 1 July heating degree days 294 233  
Cooling Degree Days 0 1  
Month to date cooling degree days 0 14  
Year to date cooling degree days 2025 1899  
Moisture  
Dew Point 40 °F    
Average Humidity 75    
Maximum Humidity 86    
Minimum Humidity 63    
Precipitation  
Precipitation 0.00 in 0.12 in 0.60 in (1970)
Month to date precipitation 0.52 1.54  
Year to date precipitation 47.28 47.49  
Snow  
Snow 0.00 in - - ()
Month to date snowfall 0.0  
Since 1 July snowfall 0.0  
Snow Depth 0.00 in    
Sea Level Pressure  
Sea Level Pressure 30.38 in    
Wind  
Wind Speed 12 mph (NNE)    
Max Wind Speed 18 mph    
Max Gust Speed 25 mph    
Visibility 10 miles    
Events      
T = Trace of Precipitation, MM = Missing Value Source: NWS Daily Summary

Daily Weather History Graph

Daily Weather History Graph

Search for Another Location

Airport:

Trip Planner

Search our weather history database for the weather conditions in past years. The results will help you decide how hot, cold, wet, or windy it might be!

Date:

Astronomy

Nov. 14, 2012 Rise Set
Actual Time 6:42 AM EST 5:02 PM EST
Civil Twilight 6:15 AM EST 5:29 PM EST
Nautical Twilight 5:44 AM EST 6:00 PM EST
Astronomical Twilight 5:14 AM EST 6:30 PM EST
Moon 7:27 AM EST (11/14) 5:51 PM EST (11/14)
Length of Visible Light 11h 14m
Length of Day
10h 20m
New Moon, 1% of the Moon is Illuminated
Nov 14
New Moon
Nov 20
First Quarter
Nov 28
Full
Dec 6
Last Quarter
Dec 13
New

Hourly Weather History & Observations

Time (EST) Temp. Windchill Dew Point Humidity Pressure Visibility Wind Dir Wind Speed Gust Speed Precip Events Conditions
12:54 AM 46.0 °F 39.6 °F 42.1 °F 86% 30.37 in 10.0 mi NNE 15.0 mph 20.7 mph N/A   Overcast
1:08 AM 46.4 °F 40.4 °F 42.8 °F 87% 30.37 in 10.0 mi NNE 13.8 mph 21.9 mph N/A   Overcast
1:54 AM 46.0 °F 40.6 °F 39.9 °F 79% 30.37 in 10.0 mi NNE 11.5 mph - N/A   Overcast
2:54 AM 46.0 °F 39.9 °F 39.0 °F 76% 30.37 in 10.0 mi NNE 13.8 mph - N/A   Overcast
3:54 AM 46.0 °F 40.2 °F 39.9 °F 79% 30.36 in 10.0 mi NNE 12.7 mph 19.6 mph N/A   Overcast
4:54 AM 46.0 °F 40.2 °F 39.9 °F 79% 30.38 in 10.0 mi NNE 12.7 mph 21.9 mph N/A   Overcast
5:54 AM 46.9 °F - 39.9 °F 77% 30.38 in 10.0 mi North 11.5 mph - N/A   Overcast
6:54 AM 46.0 °F 40.2 °F 39.9 °F 79% 30.40 in 10.0 mi NNE 12.7 mph 18.4 mph N/A   Overcast
7:54 AM 46.0 °F 40.6 °F 39.9 °F 79% 30.41 in 10.0 mi North 11.5 mph - N/A   Overcast
8:54 AM 46.9 °F - 39.9 °F 77% 30.41 in 10.0 mi NNE 16.1 mph - 0.01 in   Overcast
9:54 AM 48.0 °F - 39.9 °F 74% 30.42 in 10.0 mi NNE 13.8 mph - N/A   Mostly Cloudy
10:05 AM 48.2 °F - 39.2 °F 71% 30.42 in 10.0 mi North 13.8 mph 19.6 mph N/A   Scattered Clouds
10:38 AM 50.0 °F - 39.2 °F 66% 30.42 in 10.0 mi North 12.7 mph - N/A   Mostly Cloudy
10:54 AM 51.1 °F - 39.9 °F 66% 30.43 in 10.0 mi NNE 12.7 mph 19.6 mph N/A   Overcast
11:54 AM 52.0 °F - 41.0 °F 66% 30.40 in 10.0 mi NNE 11.5 mph - N/A   Overcast
12:54 PM 51.1 °F - 42.1 °F 71% 30.38 in 10.0 mi North 13.8 mph - N/A   Overcast
1:54 PM 50.0 °F - 42.1 °F 74% 30.37 in 10.0 mi NNE 11.5 mph - N/A   Overcast
2:54 PM 50.0 °F - 43.0 °F 77% 30.37 in 10.0 mi North 12.7 mph 17.3 mph N/A   Overcast
3:54 PM 50.0 °F - 43.0 °F 77% 30.36 in 10.0 mi NNE 9.2 mph - N/A   Overcast
4:54 PM 50.0 °F - 43.0 °F 77% 30.36 in 10.0 mi NNE 13.8 mph - N/A   Overcast
5:54 PM 50.0 °F - 43.0 °F 77% 30.38 in 10.0 mi NNE 12.7 mph - N/A   Overcast
6:54 PM 48.9 °F - 42.1 °F 77% 30.38 in 10.0 mi NE 9.2 mph - N/A   Overcast
7:54 PM 48.9 °F - 41.0 °F 74% 30.37 in 10.0 mi NNE 15.0 mph 20.7 mph N/A   Overcast
8:54 PM 48.0 °F - 39.0 °F 71% 30.39 in 10.0 mi NNE 8.1 mph - N/A   Overcast
9:28 PM 46.4 °F 41.1 °F 39.2 °F 76% 30.39 in 10.0 mi NNE 11.5 mph - N/A   Overcast
9:54 PM 46.9 °F - 37.9 °F 71% 30.38 in 10.0 mi North 9.2 mph - N/A   Overcast
10:54 PM 46.0 °F 40.6 °F 37.9 °F 73% 30.35 in 10.0 mi NNE 11.5 mph 18.4 mph N/A   Scattered Clouds
11:54 PM 46.0 °F 41.9 °F 37.9 °F 73% 30.33 in 10.0 mi NNE 8.1 mph - N/A   Overcast